VOZ925 YSSY-YBBN

Flight info

Callsign VOZ925
Flight time 1h 14m
Altitude 35000
Route TESAT H252 OLSEM Y193 BANDA H252 GOMOL
Aircraft B738/M-SDE2E3FGHIRWXY/LB1

Departure

Time 2026-04-26 23:28
Airport Sydney Kingsford Smith International Airport (YSSY)

Arrival

Time 2026-04-27 00:43
Airport Brisbane International Airport (YBBN)
Time Latitude Longitude Altitude Speed Heading
2026-04-26 22:58 -33.93625 151.17890 29 ft 0 kts 99°
2026-04-26 23:10 -33.93625 151.17889 29 ft 1 kts 99°
2026-04-26 23:11 -33.93621 151.17861 29 ft 4 kts 99°
2026-04-26 23:11 -33.93615 151.17831 29 ft 4 kts 127°
2026-04-26 23:11 -33.93605 151.17822 29 ft 0 kts 190°
2026-04-26 23:14 -33.93617 151.17819 29 ft 4 kts 190°
2026-04-26 23:14 -33.93649 151.17812 29 ft 5 kts 190°
2026-04-26 23:14 -33.93684 151.17804 29 ft 6 kts 190°
2026-04-26 23:14 -33.93739 151.17792 29 ft 10 kts 192°
2026-04-26 23:15 -33.93812 151.17773 29 ft 11 kts 190°
2026-04-26 23:15 -33.93892 151.17776 29 ft 12 kts 172°
2026-04-26 23:15 -33.93972 151.17795 28 ft 11 kts 167°
2026-04-26 23:15 -33.94050 151.17815 28 ft 11 kts 168°
2026-04-26 23:16 -33.94127 151.17835 28 ft 11 kts 168°
2026-04-26 23:16 -33.94202 151.17854 29 ft 11 kts 168°
2026-04-26 23:16 -33.94275 151.17873 29 ft 11 kts 168°
2026-04-26 23:16 -33.94345 151.17892 29 ft 10 kts 167°
2026-04-26 23:17 -33.94414 151.17910 29 ft 10 kts 169°
2026-04-26 23:17 -33.94482 151.17895 29 ft 11 kts 201°
2026-04-26 23:17 -33.94560 151.17890 29 ft 12 kts 169°
2026-04-26 23:17 -33.94646 151.17909 29 ft 13 kts 169°
2026-04-26 23:18 -33.94735 151.17932 29 ft 13 kts 167°
2026-04-26 23:18 -33.94822 151.17956 29 ft 13 kts 167°
2026-04-26 23:18 -33.94906 151.17979 29 ft 12 kts 167°
2026-04-26 23:18 -33.94989 151.18001 29 ft 12 kts 167°
2026-04-26 23:19 -33.95068 151.18025 29 ft 12 kts 155°
2026-04-26 23:19 -33.95097 151.18106 29 ft 11 kts 81°
2026-04-26 23:19 -33.95084 151.18200 29 ft 11 kts 79°
2026-04-26 23:19 -33.95067 151.18287 29 ft 11 kts 75°
2026-04-26 23:20 -33.95046 151.18372 29 ft 10 kts 76°
2026-04-26 23:20 -33.95035 151.18456 29 ft 10 kts 108°
2026-04-26 23:20 -33.95086 151.18519 29 ft 11 kts 140°
2026-04-26 23:20 -33.95149 151.18582 29 ft 12 kts 141°
2026-04-26 23:21 -33.95218 151.18650 29 ft 13 kts 141°
2026-04-26 23:21 -33.95298 151.18715 29 ft 14 kts 153°
2026-04-26 23:21 -33.95397 151.18746 29 ft 15 kts 169°
2026-04-26 23:21 -33.95497 151.18767 29 ft 14 kts 170°
2026-04-26 23:22 -33.95594 151.18788 29 ft 14 kts 170°
2026-04-26 23:22 -33.95685 151.18807 29 ft 13 kts 169°
2026-04-26 23:22 -33.95772 151.18831 29 ft 13 kts 167°
2026-04-26 23:22 -33.95857 151.18856 29 ft 12 kts 167°
2026-04-26 23:23 -33.95940 151.18879 29 ft 12 kts 167°
2026-04-26 23:23 -33.96021 151.18901 29 ft 12 kts 167°
2026-04-26 23:23 -33.96100 151.18925 29 ft 11 kts 166°
2026-04-26 23:23 -33.96176 151.18948 29 ft 11 kts 166°
2026-04-26 23:24 -33.96260 151.18973 29 ft 13 kts 167°
2026-04-26 23:24 -33.96348 151.18995 29 ft 13 kts 171°
2026-04-26 23:24 -33.96435 151.19014 29 ft 12 kts 167°
2026-04-26 23:24 -33.96490 151.19030 29 ft 12 kts 167°
2026-04-26 23:25 -33.96573 151.19052 29 ft 12 kts 167°
2026-04-26 23:25 -33.96653 151.19074 29 ft 12 kts 167°
2026-04-26 23:25 -33.96732 151.19083 29 ft 11 kts 181°
2026-04-26 23:25 -33.96810 151.19072 29 ft 11 kts 184°
2026-04-26 23:26 -33.96885 151.19077 29 ft 11 kts 167°
2026-04-26 23:26 -33.96957 151.19096 29 ft 10 kts 167°
2026-04-26 23:26 -33.97026 151.19115 29 ft 10 kts 167°
2026-04-26 23:26 -33.97094 151.19135 29 ft 10 kts 153°
2026-04-26 23:27 -33.97119 151.19206 29 ft 10 kts 85°
2026-04-26 23:27 -33.97103 151.19290 27 ft 11 kts 75°
2026-04-26 23:27 -33.97055 151.19365 25 ft 13 kts
2026-04-26 23:27 -33.96944 151.19339 25 ft 29 kts 346°
2026-04-26 23:28 -33.96509 151.19219 24 ft 98 kts 348°
2026-04-26 23:28 -33.95640 151.18999 32 ft 153 kts 345°
2026-04-26 23:28 -33.94594 151.18725 648 ft 151 kts 346°
2026-04-26 23:28 -33.93525 151.18558 1146 ft 170 kts
2026-04-26 23:29 -33.92461 151.19378 1442 ft 199 kts 42°
2026-04-26 23:29 -33.91317 151.20486 1669 ft 221 kts 33°
2026-04-26 23:29 -33.90019 151.21615 2010 ft 235 kts 35°
2026-04-26 23:29 -33.88686 151.22804 2470 ft 247 kts 36°
2026-04-26 23:30 -33.87262 151.24063 2934 ft 259 kts 36°
2026-04-26 23:30 -33.85810 151.25337 3768 ft 258 kts 36°
2026-04-26 23:30 -33.84380 151.26627 4460 ft 262 kts 43°
2026-04-26 23:30 -33.83369 151.28481 5159 ft 266 kts 69°
2026-04-26 23:31 -33.82766 151.30565 5897 ft 268 kts 72°
2026-04-26 23:31 -33.82196 151.32715 6647 ft 271 kts 73°
2026-04-26 23:31 -33.81634 151.34893 7336 ft 276 kts 73°
2026-04-26 23:31 -33.80776 151.36986 7986 ft 284 kts 54°
2026-04-26 23:32 -33.79527 151.38833 8752 ft 286 kts 52°
2026-04-26 23:32 -33.78248 151.40686 9486 ft 290 kts 52°
2026-04-26 23:32 -33.76955 151.42566 10219 ft 293 kts 52°
2026-04-26 23:32 -33.75615 151.44527 10510 ft 315 kts 52°
2026-04-26 23:33 -33.74178 151.46643 10711 ft 337 kts 52°
2026-04-26 23:33 -33.72665 151.48872 11187 ft 349 kts 52°
2026-04-26 23:33 -33.71125 151.51147 11865 ft 353 kts 52°
2026-04-26 23:33 -33.69591 151.53416 12591 ft 356 kts 52°
2026-04-26 23:34 -33.68026 151.55731 13330 ft 359 kts 52°
2026-04-26 23:34 -33.66428 151.58092 14077 ft 362 kts 52°
2026-04-26 23:34 -33.64822 151.60391 14818 ft 365 kts 46°
2026-04-26 23:34 -33.62783 151.62243 15551 ft 370 kts 33°
2026-04-26 23:35 -33.60603 151.63900 16313 ft 372 kts 33°
2026-04-26 23:35 -33.58409 151.65584 17018 ft 376 kts 34°
2026-04-26 23:35 -33.56208 151.67300 17706 ft 379 kts 34°
2026-04-26 23:35 -33.53993 151.69045 18383 ft 382 kts 34°
2026-04-26 23:36 -33.51761 151.70809 19046 ft 385 kts 34°
2026-04-26 23:36 -33.49430 151.72438 19654 ft 390 kts 26°
2026-04-26 23:36 -33.46861 151.73557 20257 ft 395 kts 16°
2026-04-26 23:36 -33.44184 151.74364 20857 ft 399 kts 15°
2026-04-26 23:37 -33.41481 151.75165 21423 ft 402 kts 15°
2026-04-26 23:37 -33.38756 151.76004 21963 ft 406 kts 15°
2026-04-26 23:37 -33.36044 151.76860 22487 ft 409 kts 16°
2026-04-26 23:37 -33.33286 151.77747 23005 ft 412 kts 16°
2026-04-26 23:38 -33.30510 151.78645 23498 ft 415 kts 16°
2026-04-26 23:38 -33.27707 151.79554 23983 ft 419 kts 16°
2026-04-26 23:38 -33.24884 151.80469 24470 ft 421 kts 16°
2026-04-26 23:38 -33.22045 151.81388 24935 ft 424 kts 16°
2026-04-26 23:39 -33.19180 151.82314 25370 ft 427 kts 16°
2026-04-26 23:39 -33.16298 151.83243 25789 ft 431 kts 16°
2026-04-26 23:39 -33.13396 151.84178 26198 ft 434 kts 16°
2026-04-26 23:39 -33.10464 151.85121 26596 ft 437 kts 16°
2026-04-26 23:40 -33.07522 151.86067 26991 ft 439 kts 17°
2026-04-26 23:40 -33.04560 151.87019 27372 ft 442 kts 17°
2026-04-26 23:40 -33.01581 151.87975 27730 ft 445 kts 17°
2026-04-26 23:40 -32.98578 151.88939 28090 ft 447 kts 17°
2026-04-26 23:41 -32.95598 151.89893 28439 ft 450 kts 17°
2026-04-26 23:41 -32.92564 151.90864 28772 ft 453 kts 17°
2026-04-26 23:41 -32.89510 151.91841 29092 ft 455 kts 17°
2026-04-26 23:41 -32.86438 151.92824 29408 ft 458 kts 17°
2026-04-26 23:42 -32.83360 151.93808 29716 ft 460 kts 17°
2026-04-26 23:42 -32.77138 151.95793 30279 ft 465 kts 17°
2026-04-26 23:42 -32.74010 151.96791 30613 ft 465 kts 17°
2026-04-26 23:43 -32.70887 151.97786 31048 ft 464 kts 17°
2026-04-26 23:43 -32.67773 151.98776 31443 ft 463 kts 17°
2026-04-26 23:43 -32.64657 151.99768 31750 ft 463 kts 17°
2026-04-26 23:43 -32.61532 152.00761 32055 ft 464 kts 17°
2026-04-26 23:44 -32.58419 152.01750 32423 ft 463 kts 17°
2026-04-26 23:44 -32.55305 152.02739 32803 ft 462 kts 17°
2026-04-26 23:44 -32.52194 152.03726 33117 ft 462 kts 17°
2026-04-26 23:44 -32.49083 152.04714 33403 ft 463 kts 17°
2026-04-26 23:45 -32.45962 152.05703 33705 ft 464 kts 17°
2026-04-26 23:45 -32.42844 152.06689 34033 ft 463 kts 16°
2026-04-26 23:45 -32.39770 152.07662 34355 ft 463 kts 16°
2026-04-26 23:45 -32.36660 152.08645 34663 ft 462 kts 16°
2026-04-26 23:46 -32.33557 152.09625 34998 ft 461 kts 16°
2026-04-26 23:46 -32.30462 152.10602 35293 ft 460 kts 16°
2026-04-26 23:46 -32.24217 152.12573 35298 ft 465 kts 16°
2026-04-26 23:47 -32.17992 152.14533 35280 ft 459 kts 16°
2026-04-26 23:47 -32.11830 152.16470 35297 ft 457 kts 16°
2026-04-26 23:48 -32.05677 152.18404 35296 ft 458 kts 16°
2026-04-26 23:48 -31.99514 152.20337 35302 ft 458 kts 16°
2026-04-26 23:49 -31.93344 152.22269 35300 ft 459 kts 16°
2026-04-26 23:49 -31.87169 152.24198 35305 ft 459 kts 16°
2026-04-26 23:50 -31.80987 152.26129 35303 ft 460 kts 16°
2026-04-26 23:50 -31.74837 152.28047 35307 ft 460 kts 16°
2026-04-26 23:51 -31.68637 152.29978 35302 ft 461 kts 15°
2026-04-26 23:51 -31.62434 152.31907 35306 ft 461 kts 15°
2026-04-26 23:52 -31.56229 152.33833 35300 ft 461 kts 15°
2026-04-26 23:52 -31.50026 152.35759 35307 ft 460 kts 15°
2026-04-26 23:53 -31.43828 152.37681 35302 ft 460 kts 15°
2026-04-26 23:53 -31.37633 152.39596 35306 ft 460 kts 15°
2026-04-26 23:54 -31.31444 152.41506 35302 ft 460 kts 15°
2026-04-26 23:54 -31.25293 152.43403 35303 ft 460 kts 15°
2026-04-26 23:55 -31.19114 152.45307 35306 ft 459 kts 15°
2026-04-26 23:55 -31.12927 152.47211 35299 ft 459 kts 15°
2026-04-26 23:56 -31.06749 152.49109 35308 ft 459 kts 15°
2026-04-26 23:56 -31.00563 152.51007 35296 ft 459 kts 15°
2026-04-26 23:57 -30.94388 152.52899 35294 ft 459 kts 15°
2026-04-26 23:57 -30.88216 152.54787 35295 ft 459 kts 15°
2026-04-26 23:58 -30.82035 152.56678 35296 ft 458 kts 14°
2026-04-26 23:58 -30.75885 152.58670 35296 ft 458 kts 17°
2026-04-26 23:59 -30.69808 152.60922 35293 ft 458 kts 18°
2026-04-26 23:59 -30.63778 152.63174 35298 ft 458 kts 17°
2026-04-27 00:00 -30.57686 152.65407 35291 ft 458 kts 17°
2026-04-27 00:00 -30.51603 152.67613 35297 ft 458 kts 17°
2026-04-27 00:01 -30.45517 152.69814 35297 ft 458 kts 17°
2026-04-27 00:01 -30.39428 152.72012 35294 ft 458 kts 17°
2026-04-27 00:02 -30.33342 152.74209 35296 ft 458 kts 17°
2026-04-27 00:02 -30.27247 152.76406 35304 ft 458 kts 17°
2026-04-27 00:03 -30.21152 152.78600 35291 ft 459 kts 17°
2026-04-27 00:03 -30.15050 152.80793 35298 ft 459 kts 17°
2026-04-27 00:04 -30.09965 152.82619 35291 ft 459 kts 17°
2026-04-27 00:04 -30.03875 152.84804 35290 ft 458 kts 17°
2026-04-27 00:05 -29.97792 152.86984 35296 ft 458 kts 17°
2026-04-27 00:05 -29.91716 152.89158 35295 ft 457 kts 16°
2026-04-27 00:06 -29.85646 152.91314 35287 ft 456 kts 16°
2026-04-27 00:06 -29.79588 152.93459 35290 ft 455 kts 16°
2026-04-27 00:07 -29.73537 152.95601 35289 ft 454 kts 16°
2026-04-27 00:07 -29.67496 152.97737 35284 ft 454 kts 16°
2026-04-27 00:08 -29.61459 152.99870 35285 ft 453 kts 15°
2026-04-27 00:08 -29.55433 153.01996 35273 ft 453 kts 15°
2026-04-27 00:09 -29.49412 153.04118 35278 ft 453 kts 15°
2026-04-27 00:09 -29.43384 153.06240 35279 ft 453 kts 15°
2026-04-27 00:10 -29.37360 153.08358 35260 ft 453 kts 15°
2026-04-27 00:10 -29.31370 153.10463 35268 ft 452 kts 15°
2026-04-27 00:11 -29.25350 153.12577 35275 ft 452 kts 16°
2026-04-27 00:11 -29.19333 153.14694 35255 ft 452 kts 16°
2026-04-27 00:12 -29.16319 153.15756 34929 ft 457 kts 16°
2026-04-27 00:12 -29.13276 153.16827 34367 ft 455 kts 16°
2026-04-27 00:12 -29.10250 153.17892 33859 ft 452 kts 16°
2026-04-27 00:12 -29.07255 153.18946 33392 ft 447 kts 16°
2026-04-27 00:13 -29.04291 153.19988 32937 ft 443 kts 16°
2026-04-27 00:13 -29.01351 153.21021 32478 ft 439 kts 16°
2026-04-27 00:13 -28.98445 153.22040 32015 ft 436 kts 16°
2026-04-27 00:13 -28.95550 153.23053 31555 ft 432 kts 16°
2026-04-27 00:14 -28.92690 153.24053 31107 ft 429 kts 15°
2026-04-27 00:14 -28.89874 153.25040 30660 ft 426 kts 15°
2026-04-27 00:14 -28.87055 153.26028 30211 ft 422 kts 15°
2026-04-27 00:14 -28.84257 153.27007 29761 ft 419 kts 15°
2026-04-27 00:15 -28.81479 153.27978 29295 ft 416 kts 15°
2026-04-27 00:15 -28.78722 153.28940 28829 ft 413 kts 15°
2026-04-27 00:15 -28.75984 153.29896 28376 ft 409 kts 16°
2026-04-27 00:15 -28.73270 153.30843 27921 ft 406 kts 16°
2026-04-27 00:16 -28.70576 153.31782 27446 ft 404 kts 16°
2026-04-27 00:16 -28.67893 153.32718 26999 ft 401 kts 16°
2026-04-27 00:16 -28.65239 153.33643 26556 ft 398 kts 16°
2026-04-27 00:16 -28.62599 153.34562 26118 ft 395 kts 16°
2026-04-27 00:17 -28.59981 153.35473 25667 ft 392 kts 16°
2026-04-27 00:17 -28.57382 153.36376 25230 ft 389 kts 16°
2026-04-27 00:17 -28.54801 153.37273 24792 ft 386 kts 16°
2026-04-27 00:17 -28.52233 153.38164 24360 ft 384 kts 17°
2026-04-27 00:18 -28.49686 153.39049 23928 ft 381 kts 17°
2026-04-27 00:18 -28.47148 153.39931 23502 ft 379 kts 17°
2026-04-27 00:18 -28.44633 153.40803 23077 ft 377 kts 17°
2026-04-27 00:18 -28.42162 153.41660 22673 ft 374 kts 17°
2026-04-27 00:19 -28.39681 153.42520 22246 ft 372 kts 17°
2026-04-27 00:19 -28.37210 153.43376 21831 ft 369 kts 17°
2026-04-27 00:19 -28.34759 153.44226 21415 ft 367 kts 17°
2026-04-27 00:19 -28.32322 153.45070 21014 ft 364 kts 17°
2026-04-27 00:20 -28.29907 153.45905 20610 ft 362 kts 17°
2026-04-27 00:20 -28.27507 153.46735 20207 ft 359 kts 17°
2026-04-27 00:20 -28.25118 153.47561 19813 ft 357 kts 17°
2026-04-27 00:20 -28.22747 153.48380 19409 ft 355 kts 18°
2026-04-27 00:21 -28.20395 153.49192 19014 ft 352 kts 18°
2026-04-27 00:21 -28.18054 153.49999 18618 ft 350 kts 18°
2026-04-27 00:21 -28.15703 153.50536 18211 ft 349 kts
2026-04-27 00:21 -28.13286 153.50573 17850 ft 346 kts
2026-04-27 00:22 -28.10882 153.50542 17456 ft 344 kts
2026-04-27 00:22 -28.08494 153.50509 17067 ft 342 kts
2026-04-27 00:22 -28.06119 153.50487 16679 ft 340 kts
2026-04-27 00:22 -28.03753 153.50477 16291 ft 338 kts
2026-04-27 00:23 -28.01403 153.50475 15901 ft 336 kts
2026-04-27 00:23 -27.99068 153.50480 15523 ft 334 kts
2026-04-27 00:23 -27.96780 153.50488 15149 ft 332 kts
2026-04-27 00:23 -27.94473 153.50497 14766 ft 331 kts
2026-04-27 00:24 -27.92179 153.50507 14392 ft 329 kts
2026-04-27 00:24 -27.89898 153.50518 14019 ft 327 kts
2026-04-27 00:24 -27.87629 153.50528 13644 ft 325 kts
2026-04-27 00:24 -27.85376 153.50538 13268 ft 323 kts
2026-04-27 00:25 -27.83127 153.50548 12894 ft 321 kts
2026-04-27 00:25 -27.80893 153.50558 12501 ft 320 kts
2026-04-27 00:25 -27.78669 153.50568 12198 ft 316 kts
2026-04-27 00:25 -27.76487 153.50577 12079 ft 312 kts
2026-04-27 00:26 -27.74293 153.50587 11960 ft 320 kts
2026-04-27 00:26 -27.72052 153.50597 11828 ft 324 kts
2026-04-27 00:26 -27.69792 153.50606 11687 ft 324 kts
2026-04-27 00:26 -27.67544 153.50614 11547 ft 322 kts
2026-04-27 00:27 -27.65304 153.50622 11411 ft 320 kts
2026-04-27 00:27 -27.63100 153.50631 11276 ft 320 kts
2026-04-27 00:27 -27.60876 153.50641 11146 ft 319 kts
2026-04-27 00:27 -27.58658 153.50651 11015 ft 319 kts
2026-04-27 00:28 -27.56442 153.50660 10886 ft 319 kts
2026-04-27 00:28 -27.54221 153.50672 10760 ft 319 kts
2026-04-27 00:28 -27.52005 153.50680 10565 ft 320 kts
2026-04-27 00:28 -27.49773 153.50688 10317 ft 318 kts
2026-04-27 00:29 -27.47589 153.50696 10163 ft 308 kts
2026-04-27 00:29 -27.45484 153.50708 10018 ft 297 kts
2026-04-27 00:29 -27.43467 153.50713 9938 ft 283 kts
2026-04-27 00:29 -27.41511 153.50693 9746 ft 280 kts
2026-04-27 00:30 -27.39569 153.50620 9656 ft 278 kts 360°
2026-04-27 00:30 -27.37630 153.50540 9553 ft 279 kts 360°
2026-04-27 00:30 -27.35674 153.50459 9451 ft 283 kts 360°
2026-04-27 00:30 -27.33688 153.50382 9335 ft 286 kts
2026-04-27 00:31 -27.31699 153.50313 9212 ft 286 kts
2026-04-27 00:31 -27.29710 153.50240 9083 ft 285 kts
2026-04-27 00:31 -27.27730 153.50164 8933 ft 286 kts
2026-04-27 00:31 -27.25723 153.50078 8645 ft 289 kts
2026-04-27 00:32 -27.23721 153.49990 8363 ft 286 kts
2026-04-27 00:32 -27.21760 153.49901 8089 ft 283 kts
2026-04-27 00:32 -27.19797 153.49810 7816 ft 281 kts
2026-04-27 00:32 -27.17848 153.49720 7544 ft 279 kts 360°
2026-04-27 00:33 -27.15959 153.49283 7245 ft 281 kts 334°
2026-04-27 00:33 -27.14437 153.47882 6999 ft 281 kts 309°
2026-04-27 00:33 -27.13349 153.46103 6735 ft 279 kts 302°
2026-04-27 00:33 -27.12344 153.44235 6457 ft 279 kts 301°
2026-04-27 00:34 -27.11343 153.42371 6187 ft 278 kts 301°
2026-04-27 00:34 -27.10324 153.40518 5910 ft 278 kts 302°
2026-04-27 00:34 -27.09293 153.38677 5635 ft 279 kts 302°
2026-04-27 00:34 -27.08260 153.36833 5350 ft 278 kts 301°
2026-04-27 00:35 -27.07566 153.34900 5218 ft 259 kts 275°
2026-04-27 00:35 -27.07734 153.32967 5113 ft 235 kts 249°
2026-04-27 00:35 -27.08408 153.31404 4885 ft 218 kts 230°
2026-04-27 00:35 -27.09344 153.30114 4677 ft 209 kts 225°
2026-04-27 00:36 -27.10269 153.28880 4464 ft 203 kts 225°
2026-04-27 00:36 -27.11167 153.27686 4258 ft 198 kts 225°
2026-04-27 00:36 -27.12052 153.26503 4079 ft 200 kts 225°
2026-04-27 00:36 -27.12959 153.25330 4019 ft 197 kts 218°
2026-04-27 00:37 -27.14093 153.24577 4003 ft 187 kts 200°
2026-04-27 00:37 -27.15267 153.23919 3998 ft 189 kts 202°
2026-04-27 00:37 -27.16445 153.23238 3998 ft 189 kts 202°
2026-04-27 00:37 -27.17620 153.22561 3916 ft 192 kts 202°
2026-04-27 00:38 -27.18820 153.21871 3673 ft 194 kts 202°
2026-04-27 00:38 -27.20015 153.21184 3417 ft 191 kts 201°
2026-04-27 00:38 -27.21180 153.20513 3158 ft 184 kts 201°
2026-04-27 00:38 -27.22285 153.19881 2935 ft 172 kts 201°
2026-04-27 00:39 -27.23308 153.19271 2702 ft 165 kts 202°
2026-04-27 00:39 -27.24325 153.18695 2494 ft 159 kts 201°
2026-04-27 00:39 -27.25249 153.18169 2312 ft 146 kts 201°
2026-04-27 00:39 -27.26151 153.17657 2114 ft 143 kts 202°
2026-04-27 00:40 -27.27044 153.17149 1920 ft 144 kts 203°
2026-04-27 00:40 -27.27935 153.16637 1722 ft 143 kts 203°
2026-04-27 00:40 -27.28818 153.16130 1531 ft 142 kts 204°
2026-04-27 00:40 -27.29698 153.15624 1348 ft 142 kts 204°
2026-04-27 00:41 -27.30581 153.15117 1156 ft 142 kts 205°
2026-04-27 00:41 -27.31460 153.14613 965 ft 141 kts 205°
2026-04-27 00:41 -27.32322 153.14118 783 ft 141 kts 205°
2026-04-27 00:41 -27.33195 153.13616 597 ft 141 kts 205°
2026-04-27 00:42 -27.34071 153.13115 406 ft 141 kts 205°
2026-04-27 00:42 -27.34941 153.12615 225 ft 141 kts 205°
2026-04-27 00:42 -27.35813 153.12111 47 ft 140 kts 205°
2026-04-27 00:42 -27.36611 153.11665 18 ft 104 kts 207°
2026-04-27 00:43 -27.37062 153.11402 18 ft 41 kts 207°
2026-04-27 00:43 -27.37170 153.11349 18 ft 10 kts 198°
2026-04-27 00:43 -27.37261 153.11335 18 ft 16 kts 183°
2026-04-27 00:43 -27.37390 153.11330 18 ft 20 kts 178°
2026-04-27 00:44 -27.37510 153.11376 17 ft 18 kts 127°
2026-04-27 00:44 -27.37527 153.11463 17 ft 10 kts 36°
2026-04-27 00:44 -27.37468 153.11501 17 ft 10 kts 20°
2026-04-27 00:44 -27.37426 153.11518 18 ft 10 kts 21°
2026-04-27 00:45 -27.37409 153.11585 17 ft 11 kts 106°
2026-04-27 00:45 -27.37463 153.11712 18 ft 16 kts 118°
2026-04-27 00:45 -27.37499 153.11787 18 ft 17 kts 118°
2026-04-27 00:45 -27.37553 153.11900 17 ft 16 kts 118°
2026-04-27 00:46 -27.37605 153.12007 17 ft 15 kts 118°
2026-04-27 00:46 -27.37655 153.12111 17 ft 15 kts 118°
2026-04-27 00:46 -27.37703 153.12210 17 ft 14 kts 118°
2026-04-27 00:46 -27.37747 153.12306 18 ft 13 kts 114°
2026-04-27 00:47 -27.37785 153.12400 17 ft 13 kts 114°
2026-04-27 00:47 -27.37821 153.12491 17 ft 13 kts 115°
2026-04-27 00:47 -27.37858 153.12579 18 ft 12 kts 115°
2026-04-27 00:47 -27.37895 153.12664 17 ft 12 kts 118°
2026-04-27 00:48 -27.37937 153.12744 17 ft 12 kts 122°
2026-04-27 00:48 -27.37999 153.12772 17 ft 11 kts 203°
2026-04-27 00:48 -27.38070 153.12734 17 ft 11 kts 207°
2026-04-27 00:48 -27.38135 153.12689 17 ft 11 kts 213°
2026-04-27 00:49 -27.38199 153.12645 17 ft 11 kts 205°
2026-04-27 00:49 -27.38278 153.12603 17 ft 14 kts 205°
2026-04-27 00:49 -27.38381 153.12547 17 ft 18 kts 206°
2026-04-27 00:49 -27.38497 153.12480 17 ft 19 kts 207°
2026-04-27 00:50 -27.38610 153.12414 17 ft 18 kts 207°
2026-04-27 00:50 -27.38824 153.12291 17 ft 17 kts 206°
2026-04-27 00:50 -27.38891 153.12215 17 ft 14 kts 271°
2026-04-27 00:51 -27.38841 153.12133 17 ft 13 kts 320°
2026-04-27 00:51 -27.38777 153.12072 17 ft 9 kts 315°
2026-04-27 00:51 -27.38752 153.12015 17 ft 8 kts 320°
2026-04-27 00:51 -27.38718 153.11994 17 ft 2 kts 334°
2026-04-27 00:52 -27.38716 153.11993 18 ft 0 kts 334°